[[{"header":{"parameterUnit":"m.s-1","parameterCategory":1,"la1":30.2991,"la2":30.254,"lo1":-89.0895,"lo2":-89.0444,"dy":0.0017,"dx":0.0017,"nx":28,"ny":28,"refTime":"2024-12-21T03:00:00:Z","depth":0,"parameterNumber":2,"parameterNumberName":"U-component_of_WINDS"},"data":[0,0,0,0,0,0,0,0,0,0,0,0,0,0,0,0,0,0,0,0,0,0,0,0,0,0,0,0,0,0,0,0,0,0,0,0,0,0,0,0,0,0,0,0,0,0,0,0,0,0,0,0,0,0,0,0,0,0,-2.0782,-2.0783,0,-2.0828,-2.0829,-2.0829,-2.0783,-2.0781,-2.078,-2.0778,-2.0826,-2.0829,-2.0832,0,0,0,0,0,0,0,0,0,0,0,0,0,-2.0655,-2.0658,-2.0782,-2.0783,-2.0783,-2.0828,-2.0829,-2.0829,-2.0784,-2.0781,-2.0779,-2.0777,-2.0825,-2.0829,-2.0832,0,0,0,0,0,0,0,0,0,0,0,0,0,-2.0707,-2.0658,-2.0782,-2.0766,-2.0765,-2.0828,-2.0829,-2.0829,-2.0784,-2.0781,-2.0779,-2.0776,-2.0824,-2.0828,-2.0833,-2.0914,0,0,-2.0846,-2.0848,0,0,0,0,0,0,0,0,-2.0704,-2.0711,-2.0768,-2.0767,-2.0766,-2.0797,-2.0801,-2.0858,-2.0785,-2.0777,-2.0778,-2.0775,-2.0819,-2.0823,-2.0838,-2.0916,-2.0919,-2.0847,-2.0849,-2.0851,-2.0852,0,0,0,0,0,0,0,-2.07,-2.0709,-2.08,-2.0768,-2.0767,-2.0756,-2.0761,-2.0812,-2.0812,-2.0777,-2.0774,-2.078,-2.0818,-2.0834,-2.0839,-2.0919,-2.0847,-2.085,-2.0853,-2.0855,-2.1067,-2.107,0,0,0,0,0,0,-2.0698,-2.0706,-2.0799,-2.0802,-2.0728,-2.0761,-2.0766,-2.079,-2.0812,-2.0812,-2.0782,-2.0778,-2.0828,-2.0834,-2.084,-2.0938,-2.0851,-2.0855,-2.0858,-2.1064,-2.1068,-2.1071,0,0,0,0,0,0,-2.0696,-2.0707,-2.0797,-2.0753,-2.0764,-2.0766,-2.0793,-2.0792,-2.0808,-2.0815,-2.0815,-2.0799,-2.0826,-2.0834,-2.0896,-2.0939,-2.0857,-2.0861,-2.1061,-2.1065,-2.1069,-2.1133,0,0,0,0,0,0,-2.0692,-2.0706,-2.0737,-2.0754,-2.0766,-2.0852,-2.0796,-2.0795,-2.0816,-2.081,-2.0831,-2.0832,-2.0824,-2.089,-2.0901,-2.0944,-2.0865,-2.1057,-2.1063,-2.1068,-2.1128,-2.114,-2.115,0,0,0,0,0,-2.0688,-2.0754,-2.0739,-2.0751,-2.0805,-2.0855,-2.0862,-2.0852,-2.082,-2.0851,-2.0855,-2.0831,-2.0932,-2.0897,-2.0908,-2.0953,-2.1054,-2.1061,-2.1067,-2.1123,-2.1137,-2.115,0,0,0,0,0,0,-2.0743,-2.0756,-2.074,-2.0813,-2.0833,-2.0847,-2.0886,-2.0867,-2.0897,-2.0891,-2.0877,-2.0882,-2.0948,-2.0956,-2.0917,-2.1033,-2.0988,-2.0997,-2.1026,-2.104,-2.1051,-2.1048,-2.0869,0,0,0,0,0,-2.0763,-2.0802,-2.0811,-2.0875,-2.0886,-2.0884,-2.0906,-2.0896,-2.0916,-2.0925,-2.0934,-2.0955,-2.0991,-2.1016,-2.1049,-2.1128,-2.1132,-2.1164,-2.1176,-2.1185,-2.1194,-2.1236,-2.1251,-2.1093,-2.1093,-2.1093,0,0,-2.0806,-2.0818,-2.0843,-2.0886,-2.0901,-2.0942,-2.0892,-2.0937,-2.0968,-2.0932,-2.0991,-2.0998,-2.1021,-2.1092,-2.1123,-2.1101,-2.1238,-2.1193,-2.12,-2.1204,-2.1245,-2.1259,-2.1273,-2.1097,-2.1097,-2.1096,0,0,-2.0905,-2.0918,-2.0973,-2.0988,-2.101,-2.1009,-2.1022,-2.1038,-2.1042,-2.1101,-2.1075,-2.111,-2.1173,-2.1191,-2.1208,-2.1313,-2.1292,-2.1324,-2.1383,-2.1424,-2.1437,-2.1448,-2.1487,-2.15,-2.1332,-2.1332,-2.1332,0,-2.0956,-2.1017,-2.1003,-2.1051,-2.1071,-2.1039,-2.1094,-2.111,-2.1142,-2.1157,-2.1131,-2.1209,-2.1222,-2.1296,-2.1322,-2.1336,-2.1351,-2.1323,-2.1436,-2.1447,-2.1457,-2.1494,-2.1508,-2.1336,-2.1336,-2.1335,-2.1335,0,-2.1079,-2.1121,-2.1163,-2.1195,-2.1219,-2.127,-2.1264,-2.129,-2.1278,-2.1279,-2.134,-2.1354,-2.139,-2.1407,-2.1395,-2.148,-2.1466,-2.1438,-2.1393,-2.1476,-2.1511,-2.1524,-2.1342,-2.134,-2.1339,-2.1338,0,0,-2.1216,-2.1239,-2.1254,-2.1269,-2.129,-2.1323,-2.1372,-2.1408,-2.1431,-2.1453,-2.1495,-2.1549,-2.1523,-2.1543,-2.1533,-2.1569,-2.1652,-2.1537,-2.1537,-2.1559,-2.1747,-2.1769,-2.1786,-2.1638,-2.164,-2.1642,-2.1746,0,-2.1317,-2.1404,-2.1392,-2.1475,-2.1515,-2.1484,-2.1527,-2.1546,-2.1548,-2.1581,-2.1583,-2.1622,-2.1585,-2.1596,-2.1631,-2.1635,-2.169,-2.1627,-2.1677,-2.1679,-2.1675,-2.1803,-2.1827,-2.1924,-2.1759,-2.1761,-2.1763,0,-2.1447,-2.1475,-2.1562,-2.1577,-2.1593,-2.1633,-2.1664,-2.1696,-2.1716,-2.1714,-2.1736,-2.1719,-2.1769,-2.1721,-2.179,-2.1747,-2.1766,-2.1771,-2.1775,-2.1781,-2.1728,-2.1814,-2.1955,-2.197,-2.1784,-2.1782,-2.1781,0,-2.154,-2.1599,-2.1659,-2.1671,-2.1691,-2.1719,-2.1728,-2.1745,-2.1767,-2.1794,-2.1808,-2.184,-2.1859,-2.1884,-2.1877,-2.1842,-2.1948,-2.1899,-2.1949,-2.195,-2.1974,-2.1973,-2.2122,-2.1984,-2.1984,-2.1984,-2.1983,0,-2.1656,-2.1711,-2.1701,-2.1738,-2.1798,-2.1784,-2.1844,-2.185,-2.1865,-2.1902,-2.1877,-2.1913,-2.19,-2.1935,-2.193,-2.1988,-2.1996,-2.1997,-2.1995,-2.2,-2.2001,-2.2014,-2.2008,-2.1988,-2.1987,-2.1986,-2.1985,0,-2.1771,-2.1766,-2.183,-2.1842,-2.1847,-2.1891,-2.1901,-2.1936,-2.1935,-2.1983,-2.1994,-2.1993,-2.2033,-2.2028,-2.2072,-2.2068,-2.2141,-2.213,-2.2135,-2.2133,-2.2184,-2.218,-2.2348,-2.237,-2.2217,-2.2218,-2.2219,0,-2.1846,-2.1887,-2.1904,-2.1927,-2.1939,-2.1976,-2.1998,-2.1986,-2.2009,-2.2035,-2.2067,-2.2104,-2.2134,-2.2199,-2.2202,-2.2236,-2.2227,-2.2283,-2.2232,-2.2236,-2.223,-2.2228,-2.2232,-2.2294,-2.2296,-2.2297,-2.2299,0,-2.198,-2.1975,-2.2008,-2.204,-2.2066,-2.2091,-2.2113,-2.2133,-2.2122,-2.2151,-2.2191,-2.2214,-2.2259,-2.2297,-2.2328,-2.2338,-2.2317,-2.2314,-2.2328,-2.2335,-2.2336,-2.2337,-2.2164,-2.2311,-2.231,-2.2309,-2.2308,-2.2308,-2.2078,-2.2113,-2.2131,-2.2168,-2.2183,-2.2204,-2.2237,-2.224,-2.2274,-2.231,-2.23,-2.2346,-2.2364,-2.2404,-2.2417,-2.2452,-2.2432,-2.2451,-2.2457,-2.2462,-2.2469,-2.2329,-2.2458,-2.2458,-2.2457,-2.2457,-2.2457,0,-2.2212,-2.2221,-2.2255,-2.2287,-2.2316,-2.2292,-2.2315,-2.2341,-2.2382,-2.24,-2.243,-2.2476,-2.2512,-2.2518,-2.2553,-2.258,-2.2572,-2.259,-2.2589,-2.2592,-2.2485,-2.247,-2.2596,-2.2596,-2.2596,-2.2596,-2.2596,-2.2596,-2.2285,-2.2344,-2.2341,-2.2407,-2.2416,-2.2461,-2.2476,-2.2495,-2.251,-2.2563,-2.2593,-2.2596,-2.261,-2.2645,-2.2677,-2.2678,-2.2692,-2.2715,-2.2712,-2.2613,-2.2599,-2.2586,-2.2572,-2.2718,-2.2718,-2.2816,-2.2817,-2.2818]},{"header":{"parameterUnit":"m.s-1","parameterCategory":1,"la1":30.2991,"la2":30.254,"lo1":-89.0895,"lo2":-89.0444,"dy":0.0017,"dx":0.0017,"nx":28,"ny":28,"refTime":"2024-12-21T03:00:00:Z","depth":0,"parameterNumber":3,"parameterNumberName":"V-component_of_WINDS"},"data":[0,0,0,0,0,0,0,0,0,0,0,0,0,0,0,0,0,0,0,0,0,0,0,0,0,0,0,0,0,0,0,0,0,0,0,0,0,0,0,0,0,0,0,0,0,0,0,0,0,0,0,0,0,0,0,0,0,0,-6.4835,-6.4835,0,-6.4913,-6.4914,-6.4915,-6.4846,-6.4844,-6.4841,-6.4838,-6.4914,-6.4918,-6.4923,0,0,0,0,0,0,0,0,0,0,0,0,0,-6.4621,-6.4625,-6.4834,-6.4835,-6.4836,-6.4913,-6.4914,-6.4915,-6.4847,-6.4844,-6.484,-6.4837,-6.4912,-6.4918,-6.4923,0,0,0,0,0,0,0,0,0,0,0,0,0,-6.4708,-6.4627,-6.4834,-6.4812,-6.4811,-6.4913,-6.4914,-6.4915,-6.4848,-6.4843,-6.4839,-6.4835,-6.491,-6.4917,-6.4924,-6.505,0,0,-6.4945,-6.4948,0,0,0,0,0,0,0,0,-6.4703,-6.4716,-6.4814,-6.4814,-6.4812,-6.4866,-6.4866,-6.496,-6.4849,-6.4833,-6.4838,-6.4833,-6.4901,-6.4908,-6.4932,-6.5054,-6.5057,-6.4946,-6.495,-6.4953,-6.4955,0,0,0,0,0,0,0,-6.4697,-6.4712,-6.4865,-6.4816,-6.4815,-6.4796,-6.4804,-6.4884,-6.4889,-6.4834,-6.483,-6.484,-6.4899,-6.4925,-6.4933,-6.5058,-6.4945,-6.4952,-6.4956,-6.4959,-6.5288,-6.5292,0,0,0,0,0,0,-6.4694,-6.4708,-6.4863,-6.4868,-6.4747,-6.4804,-6.4812,-6.4853,-6.4888,-6.489,-6.4844,-6.4837,-6.4916,-6.4925,-6.4936,-6.5086,-6.4953,-6.4959,-6.4963,-6.5283,-6.5289,-6.5294,0,0,0,0,0,0,-6.469,-6.4709,-6.486,-6.4786,-6.4804,-6.4812,-6.4858,-6.4857,-6.4882,-6.4896,-6.4896,-6.487,-6.4913,-6.4926,-6.5023,-6.5088,-6.4962,-6.4969,-6.5278,-6.5285,-6.5291,-6.5389,0,0,0,0,0,0,-6.4684,-6.4708,-6.4757,-6.4788,-6.4808,-6.4947,-6.4862,-6.4861,-6.4895,-6.4887,-6.492,-6.4921,-6.491,-6.5013,-6.503,-6.5095,-6.4974,-6.5272,-6.5281,-6.5289,-6.538,-6.5398,-6.5414,0,0,0,0,0,-6.4677,-6.478,-6.476,-6.4779,-6.4871,-6.4951,-6.4963,-6.495,-6.4901,-6.495,-6.4958,-6.492,-6.5078,-6.5023,-6.5042,-6.511,-6.5268,-6.5278,-6.5288,-6.5372,-6.5394,-6.5413,0,0,0,0,0,0,-6.4754,-6.4784,-6.4762,-6.4878,-6.4913,-6.494,-6.5001,-6.4974,-6.5021,-6.5011,-6.4991,-6.5,-6.5102,-6.5115,-6.5054,-6.5234,-6.5165,-6.5179,-6.5222,-6.5243,-6.526,-6.5255,-6.498,0,0,0,0,0,-6.4786,-6.485,-6.4872,-6.4973,-6.4991,-6.4994,-6.5028,-6.5015,-6.5049,-6.5063,-6.5078,-6.5112,-6.5169,-6.5207,-6.526,-6.5381,-6.5387,-6.5437,-6.5454,-6.5468,-6.5481,-6.5546,-6.5568,-6.5328,-6.5327,-6.5327,0,0,-6.485,-6.4874,-6.4915,-6.4989,-6.5014,-6.508,-6.5006,-6.5079,-6.5127,-6.5073,-6.5167,-6.5179,-6.5215,-6.5325,-6.5373,-6.5339,-6.5549,-6.5481,-6.5492,-6.5498,-6.5559,-6.5582,-6.5602,-6.5335,-6.5333,-6.5332,0,0,-6.5001,-6.5026,-6.5113,-6.514,-6.518,-6.5181,-6.5202,-6.5233,-6.524,-6.5333,-6.5294,-6.535,-6.5449,-6.5476,-6.5503,-6.5665,-6.5632,-6.5683,-6.5772,-6.5835,-6.5854,-6.5871,-6.5929,-6.595,-6.5695,-6.5696,-6.5696,0,-6.5075,-6.5175,-6.5161,-6.5237,-6.527,-6.5226,-6.5314,-6.534,-6.5395,-6.5418,-6.5379,-6.5502,-6.5523,-6.5639,-6.5678,-6.5701,-6.5724,-6.5679,-6.5853,-6.587,-6.5885,-6.594,-6.5962,-6.5702,-6.5701,-6.57,-6.57,0,-6.5264,-6.5334,-6.5399,-6.5455,-6.5496,-6.5577,-6.5574,-6.5616,-6.5599,-6.5604,-6.5699,-6.5723,-6.578,-6.5806,-6.579,-6.592,-6.5897,-6.5856,-6.5786,-6.5914,-6.5965,-6.5986,-6.571,-6.5708,-6.5706,-6.5705,0,0,-6.5466,-6.5514,-6.5539,-6.5564,-6.5605,-6.5657,-6.5736,-6.5794,-6.583,-6.5869,-6.5934,-6.6019,-6.5982,-6.6012,-6.5998,-6.6054,-6.6181,-6.6006,-6.6006,-6.6038,-6.6325,-6.6356,-6.6381,-6.6159,-6.6163,-6.6166,-6.6322,0,-6.5619,-6.5759,-6.5748,-6.5879,-6.5943,-6.5902,-6.5971,-6.6003,-6.6009,-6.6063,-6.6068,-6.6129,-6.6075,-6.6093,-6.6147,-6.6155,-6.6238,-6.6143,-6.6219,-6.6222,-6.6211,-6.6407,-6.644,-6.6586,-6.6342,-6.6345,-6.6348,0,-6.5816,-6.5864,-6.6002,-6.6034,-6.606,-6.6123,-6.6175,-6.6227,-6.6262,-6.6262,-6.6297,-6.6274,-6.6352,-6.628,-6.6387,-6.6322,-6.6352,-6.6361,-6.6366,-6.6373,-6.6293,-6.6419,-6.6632,-6.6654,-6.6379,-6.6376,-6.6374,0,-6.595,-6.6049,-6.6145,-6.6167,-6.6206,-6.6251,-6.6269,-6.63,-6.6335,-6.638,-6.6403,-6.6456,-6.6485,-6.6526,-6.6517,-6.6466,-6.6626,-6.6553,-6.6628,-6.6628,-6.6663,-6.6661,-6.6884,-6.6683,-6.6683,-6.6682,-6.6682,0,-6.6122,-6.6208,-6.6205,-6.6264,-6.6359,-6.6345,-6.6439,-6.6451,-6.6479,-6.6539,-6.6506,-6.6562,-6.6547,-6.6602,-6.6596,-6.6685,-6.6698,-6.67,-6.6697,-6.6703,-6.6703,-6.6722,-6.6712,-6.6688,-6.6687,-6.6686,-6.6685,0,-6.6288,-6.6289,-6.6391,-6.6421,-6.643,-6.6498,-6.6523,-6.6577,-6.6581,-6.6657,-6.6673,-6.6679,-6.6742,-6.6738,-6.6808,-6.6804,-6.6914,-6.6899,-6.6903,-6.69,-6.6975,-6.6968,-6.7218,-6.725,-6.7028,-6.703,-6.7032,0,-6.6397,-6.6463,-6.65,-6.6539,-6.656,-6.6622,-6.6659,-6.6648,-6.6687,-6.6732,-6.6781,-6.6841,-6.6889,-6.6991,-6.7001,-6.7054,-6.7041,-6.7125,-6.7048,-6.7052,-6.7042,-6.7038,-6.7045,-6.714,-6.7142,-6.7144,-6.7146,0,-6.6592,-6.659,-6.6645,-6.6701,-6.6746,-6.6789,-6.6828,-6.6861,-6.6853,-6.6899,-6.6964,-6.7001,-6.7074,-6.7134,-6.7186,-6.7202,-6.7173,-6.717,-6.719,-6.7197,-6.7196,-6.7198,-6.6944,-6.7164,-6.7162,-6.7161,-6.716,-6.7159,-6.6733,-6.679,-6.6825,-6.6888,-6.6916,-6.6954,-6.7007,-6.7018,-6.7073,-6.7133,-6.7122,-6.7195,-6.7227,-6.7294,-6.7315,-6.7371,-6.7341,-6.737,-6.7377,-6.7385,-6.7393,-6.7188,-6.738,-6.738,-6.7379,-6.7379,-6.7378,0,-6.6926,-6.6947,-6.7005,-6.7062,-6.7111,-6.7081,-6.7122,-6.7165,-6.723,-6.7264,-6.7312,-6.7387,-6.7445,-6.7459,-6.7515,-6.7557,-6.7545,-6.7572,-6.7568,-6.7573,-6.7417,-6.7395,-6.7581,-6.7581,-6.7581,-6.758,-6.758,-6.758,-6.7033,-6.7127,-6.7129,-6.7237,-6.7256,-6.7329,-6.7356,-6.739,-6.7416,-6.7502,-6.7551,-6.7561,-6.7586,-6.7643,-6.7695,-6.7698,-6.7719,-6.7752,-6.7749,-6.7604,-6.7584,-6.7564,-6.7543,-6.7757,-6.7757,-6.79,-6.7901,-6.7902]}]]